TimeEDT,TemperatureF,Dew PointF,Humidity,Sea Level PressureIn,VisibilityMPH,Wind Direction,Wind SpeedMPH,Gust SpeedMPH,PrecipitationIn,Events,Conditions,WindDirDegrees,DateUTC
12:13 AM,71.6,64.4,78,29.94,10.0,Calm,Calm,-,N/A,,Mostly Cloudy,0,2013-07-11 04:13:00
12:33 AM,69.8,62.6,78,29.94,10.0,NNW,3.5,-,N/A,,Mostly Cloudy,330,2013-07-11 04:33:00
12:54 AM,69.8,62.6,78,29.94,10.0,Calm,Calm,-,N/A,,Scattered Clouds,0,2013-07-11 04:54:00
1:14 AM,68.0,62.6,83,29.95,10.0,NNW,4.6,-,N/A,,Scattered Clouds,330,2013-07-11 05:14:00
1:34 AM,66.2,62.6,88,29.95,10.0,Calm,Calm,-,N/A,,Scattered Clouds,0,2013-07-11 05:34:00
1:54 AM,68.0,60.8,78,29.94,10.0,NNE,3.5,-,N/A,,Mostly Cloudy,20,2013-07-11 05:54:00
2:11 AM,66.2,62.6,88,29.94,10.0,Calm,Calm,-,N/A,,Scattered Clouds,0,2013-07-11 06:11:00
2:31 AM,66.2,60.8,83,29.95,10.0,Calm,Calm,-,N/A,,Scattered Clouds,0,2013-07-11 06:31:00
2:51 AM,66.2,60.8,83,29.96,10.0,Calm,Calm,-,N/A,,Scattered Clouds,0,2013-07-11 06:51:00
3:14 AM,66.2,60.8,83,29.96,10.0,Calm,Calm,-,N/A,,Scattered Clouds,0,2013-07-11 07:14:00
3:34 AM,66.2,60.8,83,29.97,10.0,Calm,Calm,-,N/A,,Scattered Clouds,0,2013-07-11 07:34:00
3:54 AM,66.2,60.8,83,29.97,10.0,Calm,Calm,-,N/A,,Mostly Cloudy,0,2013-07-11 07:54:00
4:14 AM,66.2,60.8,83,29.97,10.0,Calm,Calm,-,N/A,,Scattered Clouds,0,2013-07-11 08:14:00
4:34 AM,64.4,60.8,88,29.97,10.0,Calm,Calm,-,N/A,,Scattered Clouds,0,2013-07-11 08:34:00
4:54 AM,64.4,60.8,88,29.98,10.0,Calm,Calm,-,N/A,,Mostly Cloudy,0,2013-07-11 08:54:00
5:15 AM,64.4,60.8,88,29.98,10.0,NNW,3.5,-,N/A,,Overcast,340,2013-07-11 09:15:00
5:35 AM,64.4,60.8,88,29.99,10.0,Calm,Calm,-,N/A,,Overcast,0,2013-07-11 09:35:00
5:55 AM,64.4,60.8,88,29.99,10.0,Calm,Calm,-,N/A,,Overcast,0,2013-07-11 09:55:00
6:15 AM,64.4,60.8,88,30.00,10.0,NNW,3.5,-,N/A,,Overcast,340,2013-07-11 10:15:00
6:35 AM,64.4,60.8,88,30.01,10.0,Calm,Calm,-,N/A,,Overcast,0,2013-07-11 10:35:00
6:55 AM,64.4,60.8,88,30.02,10.0,Calm,Calm,-,N/A,,Overcast,0,2013-07-11 10:55:00
7:15 AM,66.2,60.8,83,30.02,10.0,NNW,3.5,-,N/A,,Overcast,340,2013-07-11 11:15:00
7:35 AM,66.2,60.8,83,30.02,10.0,North,4.6,-,N/A,,Overcast,360,2013-07-11 11:35:00
7:55 AM,66.2,60.8,83,30.03,10.0,Calm,Calm,-,N/A,,Overcast,0,2013-07-11 11:55:00
8:16 AM,66.2,59.0,78,30.04,10.0,North,4.6,-,N/A,,Overcast,360,2013-07-11 12:16:00
8:36 AM,68.0,57.2,68,30.04,10.0,North,6.9,-,N/A,,Mostly Cloudy,10,2013-07-11 12:36:00
8:56 AM,69.8,59.0,68,30.04,10.0,North,5.8,-,N/A,,Mostly Cloudy,360,2013-07-11 12:56:00
9:16 AM,69.8,57.2,64,30.04,10.0,North,8.1,-,N/A,,Scattered Clouds,10,2013-07-11 13:16:00
9:36 AM,71.6,57.2,60,30.04,10.0,North,8.1,-,N/A,,Clear,350,2013-07-11 13:36:00
9:51 AM,71.6,57.2,60,30.05,10.0,North,6.9,-,N/A,,Clear,360,2013-07-11 13:51:00
10:11 AM,71.6,57.2,60,30.05,10.0,North,9.2,-,N/A,,Clear,350,2013-07-11 14:11:00
10:31 AM,73.4,57.2,57,30.05,10.0,North,6.9,-,N/A,,Clear,360,2013-07-11 14:31:00
10:52 AM,73.4,55.4,53,30.05,10.0,NNE,6.9,-,N/A,,Clear,20,2013-07-11 14:52:00
11:12 AM,73.4,55.4,53,30.05,10.0,North,6.9,-,N/A,,Clear,10,2013-07-11 15:12:00
11:32 AM,75.2,55.4,50,30.05,10.0,North,8.1,-,N/A,,Scattered Clouds,360,2013-07-11 15:32:00
11:52 AM,75.2,55.4,50,30.05,10.0,NNE,5.8,-,N/A,,Scattered Clouds,20,2013-07-11 15:52:00
12:12 PM,75.2,55.4,50,30.05,10.0,NNE,9.2,-,N/A,,Scattered Clouds,20,2013-07-11 16:12:00
12:32 PM,75.2,55.4,50,30.05,10.0,Calm,Calm,-,N/A,,Clear,0,2013-07-11 16:32:00
12:52 PM,75.2,55.4,50,30.05,10.0,North,10.4,16.1,N/A,,Scattered Clouds,360,2013-07-11 16:52:00
1:12 PM,75.2,55.4,50,30.05,10.0,North,6.9,-,N/A,,Scattered Clouds,360,2013-07-11 17:12:00
1:32 PM,77.0,55.4,47,30.05,10.0,NNW,4.6,-,N/A,,Scattered Clouds,330,2013-07-11 17:32:00
1:53 PM,77.0,55.4,47,30.05,10.0,North,9.2,-,N/A,,Scattered Clouds,10,2013-07-11 17:53:00
2:13 PM,77.0,57.2,50,30.04,10.0,Calm,Calm,-,N/A,,Clear,0,2013-07-11 18:13:00
2:33 PM,77.0,57.2,50,30.04,10.0,North,6.9,19.6,N/A,,Scattered Clouds,360,2013-07-11 18:33:00
2:53 PM,77.0,55.4,47,30.04,10.0,North,3.5,-,N/A,,Clear,10,2013-07-11 18:53:00
3:13 PM,78.8,55.4,44,30.03,10.0,NNW,6.9,-,N/A,,Clear,330,2013-07-11 19:13:00
3:33 PM,78.8,57.2,47,30.03,10.0,North,8.1,-,N/A,,Clear,10,2013-07-11 19:33:00
3:53 PM,78.8,57.2,47,30.03,10.0,North,6.9,-,N/A,,Scattered Clouds,350,2013-07-11 19:53:00
4:13 PM,78.8,55.4,44,30.03,10.0,NNW,5.8,-,N/A,,Clear,330,2013-07-11 20:13:00
4:33 PM,78.8,57.2,47,30.03,10.0,NW,8.1,-,N/A,,Clear,320,2013-07-11 20:33:00
4:54 PM,78.8,55.4,44,30.03,10.0,North,8.1,-,N/A,,Scattered Clouds,10,2013-07-11 20:54:00
5:14 PM,78.8,55.4,44,30.03,10.0,North,6.9,-,N/A,,Scattered Clouds,350,2013-07-11 21:14:00
5:34 PM,78.8,55.4,44,30.02,10.0,North,4.6,-,N/A,,Mostly Cloudy,10,2013-07-11 21:34:00
5:54 PM,78.8,55.4,44,30.02,10.0,NE,5.8,-,N/A,,Mostly Cloudy,40,2013-07-11 21:54:00
6:14 PM,78.8,57.2,47,30.02,10.0,North,4.6,-,N/A,,Scattered Clouds,350,2013-07-11 22:14:00
6:34 PM,78.8,57.2,47,30.02,10.0,NNE,4.6,-,N/A,,Scattered Clouds,20,2013-07-11 22:34:00
6:54 PM,78.8,55.4,44,30.02,10.0,North,8.1,-,N/A,,Clear,350,2013-07-11 22:54:00
7:14 PM,78.8,55.4,44,30.02,10.0,Calm,Calm,-,N/A,,Scattered Clouds,0,2013-07-11 23:14:00
7:35 PM,78.8,55.4,44,30.02,10.0,NE,4.6,-,N/A,,Mostly Cloudy,40,2013-07-11 23:35:00
7:55 PM,75.2,57.2,53,30.02,10.0,ENE,10.4,-,N/A,,Mostly Cloudy,60,2013-07-11 23:55:00
8:15 PM,75.2,59.0,57,30.03,10.0,ENE,6.9,-,N/A,,Scattered Clouds,60,2013-07-12 00:15:00
8:35 PM,73.4,60.8,65,30.03,10.0,ENE,5.8,-,N/A,,Clear,60,2013-07-12 00:35:00
8:55 PM,71.6,60.8,69,30.03,10.0,ENE,5.8,-,N/A,,Clear,70,2013-07-12 00:55:00
9:15 PM,69.8,60.8,73,30.03,10.0,ENE,6.9,-,N/A,,Clear,60,2013-07-12 01:15:00
9:35 PM,69.8,60.8,73,30.03,10.0,ENE,6.9,-,N/A,,Clear,60,2013-07-12 01:35:00
9:55 PM,68.0,60.8,78,30.04,10.0,ENE,5.8,-,N/A,,Clear,70,2013-07-12 01:55:00
10:15 PM,69.8,59.0,68,30.04,10.0,ENE,5.8,-,N/A,,Scattered Clouds,70,2013-07-12 02:15:00
10:36 PM,66.2,60.8,83,30.05,10.0,ENE,4.6,-,N/A,,Scattered Clouds,60,2013-07-12 02:36:00
10:56 PM,66.2,60.8,83,30.06,10.0,ENE,4.6,-,N/A,,Clear,70,2013-07-12 02:56:00
11:16 PM,66.2,60.8,83,30.06,10.0,Calm,Calm,-,N/A,,Clear,0,2013-07-12 03:16:00
11:36 PM,64.4,60.8,88,30.06,10.0,ENE,3.5,-,N/A,,Clear,60,2013-07-12 03:36:00
11:56 PM,66.2,59.0,78,30.06,10.0,NE,3.5,-,N/A,,Clear,40,2013-07-12 03:56:00